Vorticity
nan nan nan nan nan nan nan nan nan nan nan nan nan nan nan nan nan nan nan nan nan nan nan nan nan nan nan nan nan nan nan nan nan nan nan nan nan nan nan nan nan nan nan nan nan nan nan nan nan nan nan nan nan nan nan nan nan nan nan nan nan nan nan nan nan nan nan nan nan
nan 11 11 10 9 8 9 9 9 8 9 10 11 10 9 8 9 9 9 8 8 8 8 8 8 8 8 8 9 9 9 8 8 8 9 9 9 9 9 9 9 8 8 9 9 9 9 9 8 8 9 9 9 8 9 9 9 8 8 8 10 10 9 8 9 9 9 9 nan
nan 10 10 10 10 9 9 8 9 9 9 10 10 10 9 9 9 9 9 9 9 8 8 8 9 9 9 9 9 9 9 8 8 8 8 9 9 9 9 9 9 9 9 9 9 9 9 8 8 8 8 8 8 8 9 10 9 9 9 9 10 9 8 8 10 10 10 10 nan
nan 9 9 11 11 9 7 8 11 10 8 7 8 9 9 9 9 9 9 9 9 9 9 9 8 9 9 10 9 9 9 8 8 8 8 8 9 9 9 9 9 9 10 10 9 9 9 8 8 8 9 9 8 9 9 10 10 9 9 10 9 8 7 8 9 10 10 10 nan
nan 9 10 11 10 7 7 10 12 9 7 7 8 9 9 9 9 9 9 9 9 9 9 8 8 9 9 9 9 9 9 9 9 8 8 8 9 10 10 9 8 9 10 10 10 10 9 9 8 9 9 9 9 9 10 10 9 8 8 8 8 8 8 9 10 10 9 9 nan
nan 9 11 12 11 9 10 12 10 8 7 8 11 12 11 9 10 10 10 8 8 8 9 9 9 9 9 9 9 9 9 9 9 9 8 8 9 10 10 9 9 10 10 10 10 10 10 9 8 9 9 9 9 10 10 10 8 7 6 7 8 8 9 9 10 10 9 7 nan
nan 11 11 11 11 11 11 10 8 7 7 10 13 12 9 9 9 9 8 7 8 9 10 10 10 9 9 8 8 9 9 10 10 9 8 8 9 9 9 10 10 10 10 10 11 10 10 8 7 8 8 9 10 11 11 9 7 6 6 7 8 9 9 9 9 9 8 7 nan
nan 11 11 11 10 10 9 8 7 7 9 13 13 10 7 7 8 7 7 7 9 9 10 10 10 9 9 8 8 8 9 9 10 10 9 8 8 9 9 9 9 9 10 10 10 10 10 8 7 8 8 9 9 9 9 7 6 6 6 8 9 9 9 9 8 8 8 9 nan
nan 10 10 10 9 9 8 8 8 9 11 13 10 8 7 7 7 6 6 8 10 9 9 9 10 9 9 8 8 8 8 8 8 9 9 8 7 8 9 8 8 9 10 10 10 10 9 9 8 8 8 8 8 7 7 7 7 7 8 9 9 8 8 8 7 8 9 10 nan
nan 8 8 8 9 8 8 7 8 10 11 10 8 7 8 8 6 6 7 8 10 9 9 9 10 9 8 8 8 8 8 8 8 8 8 7 7 8 8 7 7 8 9 10 10 10 9 8 8 8 8 8 7 7 8 8 8 8 8 9 8 8 7 7 8 8 9 10 nan
nan 7 7 8 8 7 6 6 7 9 10 9 7 7 7 7 7 8 8 9 9 9 10 10 9 8 8 8 9 9 9 8 8 7 7 7 8 8 8 8 8 8 8 9 10 9 9 8 7 7 8 7 8 8 9 8 9 8 8 7 8 8 8 7 8 9 10 10 nan
nan 7 8 8 7 5 5 6 6 8 9 9 7 7 7 7 8 8 9 9 9 9 10 10 9 8 7 8 9 9 9 9 8 7 7 8 8 9 9 8 8 8 9 10 10 9 8 7 7 6 7 7 7 8 8 8 8 7 7 6 7 7 7 7 7 8 9 9 nan
nan 6 7 6 5 4 5 7 8 9 9 8 7 7 7 8 9 9 8 7 7 9 10 10 9 8 8 8 9 9 9 9 8 7 7 8 8 8 8 8 8 9 10 11 10 9 8 7 7 6 6 6 6 7 7 8 7 7 7 6 6 5 6 7 8 8 7 7 nan
nan 7 6 5 4 5 7 8 9 9 9 8 7 8 8 9 9 9 8 7 7 9 10 10 9 9 9 9 9 9 9 9 8 8 8 8 8 8 8 8 8 9 10 10 9 8 7 7 7 7 7 7 7 7 8 8 8 8 7 7 6 6 7 8 9 8 7 6 nan
nan 7 6 5 6 7 9 9 8 8 8 7 8 8 9 9 10 9 8 8 8 9 9 9 9 10 10 10 9 9 9 8 8 7 7 8 8 8 8 8 8 9 9 9 9 8 8 8 8 8 8 8 8 8 8 8 8 8 8 8 8 8 8 8 8 8 7 7 nan
nan 6 6 7 9 10 10 8 7 7 8 7 8 9 9 9 10 10 9 8 8 9 8 8 9 9 10 10 9 9 9 8 7 7 6 7 7 7 7 7 8 8 8 8 8 7 8 8 9 10 9 8 8 8 8 8 9 9 9 9 9 8 8 8 8 8 8 8 nan
nan 7 7 10 12 11 9 7 7 7 8 8 9 9 9 9 10 10 9 9 8 8 8 8 9 8 9 9 9 8 8 8 7 7 6 7 7 7 7 7 8 9 9 8 7 7 7 8 9 10 10 9 9 9 9 9 9 9 9 9 9 9 8 8 8 9 9 9 nan
nan 8 9 11 12 9 7 6 6 7 8 8 9 9 9 9 9 9 9 9 8 8 8 8 9 8 8 8 9 8 8 8 7 7 7 8 8 8 8 8 9 10 10 9 8 8 7 8 8 8 9 9 9 9 9 9 9 9 9 10 9 9 9 9 9 9 9 9 nan
nan 8 9 10 9 7 6 5 6 6 8 8 9 9 10 9 9 9 9 9 9 8 8 8 8 8 8 8 8 8 8 9 8 8 8 9 9 8 8 9 9 10 10 9 9 9 9 9 8 8 8 8 8 8 9 9 9 9 10 10 10 10 10 10 10 9 9 9 nan
nan 6 6 7 7 6 5 5 6 7 8 10 10 9 9 9 8 8 8 9 9 9 8 8 7 7 8 8 8 8 9 10 9 9 9 9 8 8 9 10 10 10 10 10 10 9 9 9 9 8 8 8 7 8 9 10 10 10 10 11 11 11 10 10 10 10 10 10 nan
nan 4 5 7 7 7 6 6 8 9 10 10 9 9 9 9 8 8 9 10 9 9 8 7 7 7 7 7 8 8 9 9 10 9 9 9 8 9 10 11 11 10 10 9 9 9 9 9 8 9 9 9 9 9 9 9 10 10 10 9 10 10 10 10 10 10 11 10 nan
nan 5 7 9 9 8 8 9 10 10 9 9 9 9 9 9 9 9 9 9 9 8 8 8 8 8 8 8 8 9 8 8 9 9 9 9 9 10 11 12 11 10 9 9 10 10 10 10 10 10 10 10 10 10 9 9 9 10 10 9 9 9 10 11 11 11 12 11 nan
nan 7 8 10 11 11 10 10 9 9 8 8 9 9 9 9 9 9 9 9 8 8 8 9 9 10 10 10 9 8 7 7 8 8 9 9 9 10 11 11 11 10 9 11 11 10 9 11 13 13 13 12 12 11 11 10 9 9 9 9 9 10 11 12 12 12 12 12 nan
nan 8 9 10 12 11 9 9 8 8 8 9 9 9 9 9 9 9 9 8 8 8 8 9 10 11 11 11 10 9 8 7 7 8 9 9 10 10 10 11 11 11 11 10 5 1 0 5 11 14 15 14 13 13 13 12 10 9 9 9 10 10 11 12 12 12 12 11 nan
nan 9 9 10 10 9 8 8 8 8 8 9 9 9 9 9 9 8 8 8 9 9 9 9 9 10 10 11 11 10 10 9 8 8 8 8 9 10 10 10 11 12 11 6 -3 -7 -6 -1 6 10 13 14 13 12 13 13 11 10 9 9 9 9 10 11 12 13 13 12 nan
nan 9 8 8 9 8 8 8 8 8 8 9 9 9 9 9 9 8 8 8 9 10 10 10 9 9 10 10 10 9 10 10 10 9 8 7 8 9 10 10 11 11 9 -0 -5 -4 -1 3 6 9 12 13 11 11 11 13 13 12 11 10 10 9 8 9 10 11 12 12 nan
nan 8 8 8 8 8 8 8 8 8 9 9 9 9 10 10 9 9 8 8 9 10 10 10 10 11 11 11 9 8 8 10 11 10 10 9 8 8 8 9 11 8 4 -4 -5 -1 4 7 9 10 13 12 12 12 12 12 13 13 13 12 11 10 10 9 9 10 10 11 nan
nan 8 8 8 8 8 8 8 8 8 9 9 9 10 10 10 9 8 8 8 8 9 10 11 12 12 12 10 10 9 9 9 10 10 11 11 10 9 7 7 8 4 -1 -6 -3 2 6 9 10 10 12 13 17 15 13 12 13 13 13 13 12 12 11 11 10 9 9 9 nan
nan 8 9 7 7 7 8 9 9 9 9 10 10 10 9 8 8 8 7 8 8 9 10 12 12 10 9 8 9 10 10 10 10 10 10 10 10 10 9 7 7 4 -1 -4 -0 5 8 9 9 9 9 14 18 15 14 12 13 13 12 12 11 11 10 9 7 7 8 8 nan
nan 9 8 7 6 7 8 9 10 10 11 11 10 9 8 7 7 8 8 9 10 10 11 11 9 8 7 8 8 9 10 10 10 10 10 8 7 7 8 9 8 5 1 -1 2 5 7 9 9 9 9 13 18 18 16 13 12 11 11 10 9 9 8 7 7 7 7 7 nan
nan 9 8 7 6 7 8 10 11 11 11 10 9 8 7 7 8 9 11 12 12 11 10 9 8 7 8 8 9 9 9 9 10 10 10 9 7 7 8 9 8 5 1 -1 2 5 7 8 9 9 9 14 21 21 17 13 11 10 9 8 8 7 7 8 10 9 8 6 nan
nan 9 8 7 6 7 9 11 11 11 10 9 8 7 7 8 9 10 11 10 11 10 9 8 8 8 8 9 10 10 10 10 9 9 9 8 9 9 9 10 10 6 0 -2 2 5 7 8 9 9 9 15 22 22 18 13 11 10 8 8 8 8 8 8 9 10 10 10 nan
nan 8 8 6 6 7 10 11 11 10 9 8 8 8 8 8 9 9 9 9 10 10 10 9 9 9 10 10 10 10 10 10 10 10 10 9 9 8 9 11 11 5 -2 -2 3 6 8 9 9 9 9 17 26 24 18 12 10 8 8 8 9 10 10 9 9 9 11 11 nan
nan 8 7 7 7 7 9 10 10 9 8 7 8 8 8 8 8 8 9 10 11 11 11 11 11 11 11 11 10 9 9 9 10 10 11 11 10 9 9 10 7 1 -3 -1 4 7 8 9 9 9 11 22 29 23 15 10 9 7 7 8 10 11 11 11 11 11 11 9 nan
nan 8 7 7 7 8 8 9 9 8 7 7 7 8 8 9 9 9 10 10 10 10 10 11 11 11 11 10 10 9 8 8 9 9 10 10 10 9 9 8 5 0 -2 1 5 7 8 9 9 10 15 27 28 19 12 10 9 9 9 9 10 10 11 12 13 12 11 10 nan
nan 8 8 7 7 8 8 8 8 7 7 7 7 8 9 10 11 11 11 11 10 9 9 10 10 10 10 10 10 10 9 9 9 9 9 8 7 8 8 8 6 3 2 3 5 7 8 9 9 12 20 29 23 15 11 11 11 11 11 11 12 12 12 13 12 11 10 11 nan
nan 9 8 8 7 8 8 8 7 7 6 7 8 9 10 10 10 11 11 10 9 8 8 9 9 9 9 10 10 10 10 10 9 8 8 8 7 7 7 8 7 6 5 3 4 5 7 8 9 14 23 26 17 12 11 11 11 12 13 13 13 13 13 12 11 11 11 10 nan
nan 10 9 9 8 8 8 8 7 7 7 8 9 9 10 10 10 11 12 10 9 9 8 9 9 9 9 9 9 10 11 9 9 8 9 9 8 6 6 7 8 8 5 2 2 4 6 8 10 14 21 20 14 12 11 11 11 11 12 13 13 13 11 10 11 13 13 9 nan
nan 10 10 9 8 8 8 7 7 8 8 9 9 9 9 9 10 10 12 11 10 10 9 8 8 8 8 7 7 8 10 10 10 10 9 9 7 4 3 6 7 6 3 1 2 5 7 8 10 12 18 20 16 14 12 11 10 10 10 10 10 11 10 10 10 12 14 11 nan
nan 11 10 9 9 8 8 6 6 7 8 9 9 9 9 9 10 10 10 10 10 10 9 8 8 7 7 7 7 7 8 9 11 11 10 9 6 5 5 8 7 6 4 4 4 6 7 8 9 12 19 22 17 13 12 11 10 9 9 8 8 9 10 11 11 11 12 13 nan
nan nan nan nan nan nan nan nan nan nan nan nan nan nan nan nan nan nan nan nan nan nan nan nan nan nan nan nan nan nan nan nan nan nan nan nan nan nan nan nan nan nan nan nan nan nan nan nan nan nan nan nan nan nan nan nan nan nan nan nan nan nan nan nan nan nan nan nan nan
CAPE
nan nan nan nan nan nan nan nan nan nan nan nan nan nan nan nan nan nan nan nan nan nan nan nan nan nan nan nan nan nan nan nan nan nan nan nan nan nan nan nan nan nan nan nan nan nan nan nan nan nan nan nan nan nan nan nan nan nan nan nan nan nan nan nan nan nan nan nan nan
nan nan nan nan nan nan nan nan nan nan nan nan nan nan nan nan nan nan nan nan nan nan nan nan nan nan nan nan nan nan nan nan nan nan nan nan nan nan nan nan nan nan nan nan nan nan nan nan nan nan nan nan nan nan nan nan nan nan nan nan nan nan nan nan nan nan nan nan nan
nan nan nan nan nan nan nan nan nan nan nan nan nan nan nan nan nan nan nan nan nan nan nan nan nan nan nan nan nan nan nan nan nan nan nan nan nan nan nan nan nan nan nan nan nan nan nan nan nan nan nan nan nan nan nan nan nan nan nan nan nan nan nan nan nan nan nan nan nan
nan nan nan nan nan nan nan nan nan nan nan nan nan nan nan nan nan nan nan nan nan nan nan nan nan nan nan nan nan nan nan nan nan nan nan nan nan nan nan nan nan nan nan nan nan nan nan nan nan nan nan nan nan nan nan nan nan nan nan nan nan nan nan nan nan nan nan nan nan
nan nan nan nan nan nan nan nan nan nan nan nan nan nan nan nan nan nan nan nan nan nan nan nan nan nan nan nan nan nan nan nan nan nan nan nan nan nan nan nan nan nan nan nan nan nan nan nan nan nan nan nan nan nan nan nan nan nan nan nan nan nan nan nan nan nan nan nan nan
nan nan nan nan nan nan nan nan nan nan nan nan nan nan nan nan nan nan nan nan nan nan nan nan nan nan nan nan nan nan nan nan nan nan nan nan nan nan nan nan nan nan nan nan nan nan nan nan nan nan nan nan nan nan nan nan nan nan nan nan nan nan nan nan nan nan nan nan nan
nan nan nan nan nan nan nan nan nan nan nan nan nan nan nan nan nan nan nan nan nan nan nan nan nan nan nan nan nan nan nan nan nan nan nan nan nan nan nan nan nan nan nan nan nan nan nan nan nan nan nan nan nan nan nan nan nan nan nan nan nan nan nan nan nan nan nan nan nan
nan nan nan nan nan nan nan nan nan nan nan nan nan nan nan nan nan nan nan nan nan nan nan nan nan nan nan nan nan nan nan nan nan nan nan nan nan nan nan nan nan nan nan nan nan nan nan nan nan nan nan nan nan nan nan nan nan nan nan nan nan nan nan nan nan nan nan nan nan
nan nan nan nan nan nan nan nan nan nan nan nan nan nan nan nan nan nan nan nan nan nan nan nan nan nan nan nan nan nan nan nan nan nan nan nan nan nan nan nan nan nan nan nan nan nan nan nan nan nan nan nan nan nan nan nan nan nan nan nan nan nan nan nan nan nan nan nan nan
nan nan nan nan nan nan nan nan nan nan nan nan nan nan nan nan nan nan nan nan nan nan nan nan nan nan nan nan nan nan nan nan nan nan nan nan nan nan nan nan nan nan nan nan nan nan nan nan nan nan nan nan nan nan nan nan nan nan nan nan nan nan nan nan nan nan nan nan nan
nan nan nan nan nan nan nan nan nan nan nan nan nan nan nan nan nan nan nan nan nan nan nan nan nan nan nan nan nan nan nan nan nan nan nan nan nan nan nan nan nan nan nan nan nan nan nan nan nan nan nan nan nan nan nan nan nan nan nan nan nan nan nan nan nan nan nan nan nan
nan nan nan nan nan nan nan nan nan nan nan nan nan nan nan nan nan nan nan nan nan nan nan nan nan nan nan nan nan nan nan nan nan nan nan nan nan nan nan nan nan nan nan nan nan nan nan nan nan nan nan nan nan nan nan nan nan nan nan nan nan nan nan nan nan nan nan nan nan
nan nan nan nan nan nan nan nan nan nan nan nan nan nan nan nan nan nan nan nan nan nan nan nan nan nan nan nan nan nan nan nan nan nan nan nan nan nan nan nan nan nan nan nan nan nan nan nan nan nan nan nan nan nan nan nan nan nan nan nan nan nan nan nan nan nan nan nan nan
nan nan nan nan nan nan nan nan nan nan nan nan nan nan nan nan nan nan nan nan nan nan nan nan nan nan nan nan nan nan nan nan nan nan nan nan nan nan nan nan nan nan nan nan nan nan nan nan nan nan nan nan nan nan nan nan nan nan nan nan nan nan nan nan nan nan nan nan nan
nan nan nan nan nan nan nan nan nan nan nan nan nan nan nan nan nan nan nan nan nan nan nan nan nan nan nan nan nan nan nan nan nan nan nan nan nan nan nan nan nan nan nan nan nan nan nan nan nan nan nan nan nan nan nan nan nan nan nan nan nan nan nan nan nan nan nan nan nan
nan nan nan nan nan nan nan nan nan nan nan nan nan nan nan nan nan nan nan nan nan nan nan nan nan nan nan nan nan nan nan nan nan nan nan nan nan nan nan nan nan nan nan nan nan nan nan nan nan nan nan nan nan nan nan nan nan nan nan nan nan nan nan nan nan nan nan nan nan
nan nan nan nan nan nan nan nan nan nan nan nan nan nan nan nan nan nan nan nan nan nan nan nan nan nan nan nan nan nan nan nan nan nan nan nan nan nan nan nan nan nan nan nan nan nan nan nan nan nan nan nan nan nan nan nan nan nan nan nan nan nan nan nan nan nan nan nan nan
nan nan nan nan nan nan nan nan nan nan nan nan nan nan nan nan nan nan nan nan nan nan nan nan nan nan nan nan nan nan nan nan nan nan nan nan nan nan nan nan nan nan nan nan nan nan nan nan nan nan nan nan nan nan nan nan nan nan nan nan nan nan nan nan nan nan nan nan nan
nan nan nan nan nan nan nan nan nan nan nan nan nan nan nan nan nan nan nan nan nan nan nan nan nan nan nan nan nan nan nan nan nan nan nan nan nan nan nan nan nan nan nan nan nan nan nan nan nan nan nan nan nan nan nan nan nan nan nan nan nan nan nan nan nan nan nan nan nan
nan nan nan nan nan nan nan nan nan nan nan nan nan nan nan nan nan nan nan nan nan nan nan nan nan nan nan nan nan nan nan nan nan nan nan nan nan nan nan nan nan nan nan nan nan nan nan nan nan nan nan nan nan nan nan nan nan nan nan nan nan nan nan nan nan nan nan nan nan
nan nan nan nan nan nan nan nan nan nan nan nan nan nan nan nan nan nan nan nan nan nan nan nan nan nan nan nan nan nan nan nan nan nan nan nan nan nan nan nan nan nan nan nan nan nan nan nan nan nan nan nan nan nan nan nan nan nan nan nan nan nan nan nan nan nan nan nan nan
nan nan nan nan nan nan nan nan nan nan nan nan nan nan nan nan nan nan nan nan nan nan nan nan nan nan nan nan nan nan nan nan nan nan nan nan nan nan nan nan nan nan nan nan nan nan nan nan nan nan nan nan nan nan nan nan nan nan nan nan nan nan nan nan nan nan nan nan nan
nan nan nan nan nan nan nan nan nan nan nan nan nan nan nan nan nan nan nan nan nan nan nan nan nan nan nan nan nan nan nan nan nan nan nan nan nan nan nan nan nan nan nan nan nan nan nan nan nan nan nan nan nan nan nan nan nan nan nan nan nan nan nan nan nan nan nan nan nan
nan nan nan nan nan nan nan nan nan nan nan nan nan nan nan nan nan nan nan nan nan nan nan nan nan nan nan nan nan nan nan nan nan nan nan nan nan nan nan nan nan nan nan nan nan nan nan nan nan nan nan nan nan nan nan nan nan nan nan nan nan nan nan nan nan nan nan nan nan
nan nan nan nan nan nan nan nan nan nan nan nan nan nan nan nan nan nan nan nan nan nan nan nan nan nan nan nan nan nan nan nan nan nan nan nan nan nan nan nan nan nan nan nan nan nan 0 0 nan nan nan nan nan nan nan nan nan nan nan nan nan nan nan nan nan nan nan nan nan
nan nan nan nan nan nan nan nan nan nan nan nan nan nan nan nan nan nan nan nan nan nan nan nan nan nan nan nan nan nan nan nan nan nan nan nan nan nan nan nan nan nan nan nan nan nan 0 1 2 2 nan nan nan nan nan nan nan nan nan nan nan nan nan nan nan nan nan nan nan
nan nan nan nan nan nan nan nan nan nan nan nan nan nan nan nan nan nan nan nan nan nan nan nan nan nan nan nan nan nan nan nan nan nan nan nan nan nan nan nan nan nan nan nan nan nan 0 1 1 1 1 nan nan nan nan nan nan nan nan nan nan nan nan nan nan nan nan nan nan
nan nan nan nan nan nan nan nan nan nan nan nan nan nan nan nan nan nan nan nan nan nan nan nan nan nan nan nan nan nan nan nan nan nan nan nan nan nan nan nan nan nan nan nan nan nan nan 0 1 1 1 nan nan nan nan nan nan nan nan nan nan nan nan nan nan nan nan nan nan
nan nan nan nan nan nan nan nan nan nan nan nan nan nan nan nan nan nan nan nan nan nan nan nan nan nan nan nan nan nan nan nan nan nan nan nan nan nan nan nan nan nan nan nan nan nan nan 0 1 1 2 2 nan nan nan nan nan nan nan nan nan nan nan nan nan nan nan nan nan
nan nan nan nan nan nan nan nan nan nan nan nan nan nan nan nan nan nan nan nan nan nan nan nan nan nan nan nan nan nan nan nan nan nan nan nan nan nan nan nan nan nan nan nan nan nan nan 0 0 0 2 3 nan nan nan nan nan nan nan nan nan nan nan nan nan nan nan nan nan
nan nan nan nan nan nan nan nan nan nan nan nan nan nan nan nan nan nan nan nan nan nan nan nan nan nan nan nan nan nan nan nan nan nan nan nan nan nan nan nan nan nan nan nan nan nan nan 0 0 0 2 4 nan nan nan nan nan nan nan nan nan nan nan nan nan nan nan nan nan
nan nan nan nan nan nan nan nan nan nan nan nan nan nan nan nan nan nan nan nan nan nan nan nan nan nan nan nan nan nan nan nan nan nan nan nan nan nan nan nan nan nan nan nan nan nan nan nan 0 0 1 4 1 nan nan nan nan nan nan nan nan nan nan nan nan nan nan nan nan
nan nan nan nan nan nan nan nan nan nan nan nan nan nan nan nan nan nan nan nan nan nan nan nan nan nan nan nan nan nan nan nan nan nan nan nan nan nan nan nan nan nan nan nan nan nan nan nan 0 0 2 4 0 nan nan nan nan nan nan nan nan nan nan nan nan nan nan nan nan
nan nan nan nan nan nan nan nan nan nan nan nan nan nan nan nan nan nan nan nan nan nan nan nan nan nan nan nan nan nan nan nan nan nan nan nan nan nan nan nan nan nan nan nan nan nan nan nan 0 0 2 5 nan nan nan nan nan nan nan nan nan nan nan nan nan nan nan nan nan
nan nan nan nan nan nan nan nan nan nan nan nan nan nan nan nan nan nan nan nan nan nan nan nan nan nan nan nan nan nan nan nan nan nan nan nan nan nan nan nan nan nan nan nan nan nan nan nan 0 0 2 3 nan nan nan nan nan nan nan nan nan nan nan nan nan nan nan nan nan
nan nan nan nan nan nan nan nan nan nan nan nan nan nan nan nan nan nan nan nan nan nan nan nan nan nan nan nan nan nan nan nan nan nan nan nan nan nan nan nan nan nan nan nan nan nan nan nan 0 0 2 0 nan nan nan nan nan nan nan nan nan nan nan nan nan nan nan nan nan
nan nan nan nan nan nan nan nan nan nan nan nan nan nan nan nan nan nan nan nan nan nan nan nan nan nan nan nan nan nan nan nan nan nan nan nan nan nan nan nan nan nan nan nan nan nan nan nan 0 0 1 nan nan nan nan nan nan nan nan nan nan nan nan nan nan nan nan nan nan
nan nan nan nan nan nan nan nan nan nan nan nan nan nan nan nan nan nan nan nan nan nan nan nan nan nan nan nan nan nan nan nan nan nan nan nan nan nan nan nan nan nan nan nan nan nan nan nan 0 0 1 nan nan nan nan nan nan nan nan nan nan nan nan nan nan nan nan nan nan
nan nan nan nan nan nan nan nan nan nan nan nan nan nan nan nan nan nan nan nan nan nan nan nan nan nan nan nan nan nan nan nan nan nan nan nan nan nan nan nan nan nan nan nan nan nan nan nan 0 0 1 nan nan nan nan nan nan nan nan nan nan nan nan nan nan nan nan nan 2
nan nan nan nan nan nan nan nan nan nan nan nan nan nan nan nan nan nan nan nan nan nan nan nan nan nan nan nan nan nan nan nan nan nan nan nan nan nan nan nan nan nan nan nan nan nan nan nan 0 0 2 nan nan nan nan nan nan nan nan nan nan nan nan nan nan nan nan nan 9
nan nan nan nan nan nan nan nan nan nan nan nan nan nan nan nan nan nan nan nan nan nan nan nan nan nan nan nan nan nan nan nan nan nan nan nan nan nan nan nan nan nan nan nan nan nan nan nan 0 0 3 nan nan nan nan nan nan nan nan nan nan nan nan nan nan nan nan nan nan